Regional Weather Roundup
Issued by NWS Goodland, KS

Home | Current Version | Previous Version | Graphics & Text | Print | Product List | Glossary On
Versions: 1 2 3 4 5 6 7 8 9 10 11 12 13 14 15 16 17 18 19 20 21 22 23 24 25 26 27 28 29 30 31 32 33 34 35 36 37 38 39 40 41 42 43 44 45 46 47 48 49 50
559
ASUS43 KGLD 240908
RWRGLD

GOODLAND FORECAST AREA HOURLY WEATHER ROUNDUP
NATIONAL WEATHER SERVICE GOODLAND KS
200 AM MST TUE JAN 24 2017

...OFFICIAL OBSERVATIONS...

CITY           SKY/WX    TMP DP  RH WIND       PRES   REMARKS
GOODLAND KS    CLOUDY    29  27  92 N8        29.44F
HILL CITY KS   CLOUDY    34  32  92 E13       29.50F
IMPERIAL NEB   CLOUDY    32  29  88 E12       29.49S
MCCOOK NEB     CLOUDY    33  31  92 E18G25    29.52F
AKRON CO       CLOUDY    30  25  81 NW14      29.49R WCI  19
BURLINGTON CO  CLOUDY    30  27  88 SW7       29.45F
LIMON CO       CLOUDY    30  27  88 W15       29.48R WCI  19
$$

...UNOFFICIAL OBSERVATIONS...

CITY           SKY/WX    TMP DP  RH WIND       PRES   REMARKS
LENORA KS        N/A     31  32 100 E9          N/A
NORTON KS      MOCLDY    34  28  80 NE13      29.51F
SHARON SPRINGS   N/A     30  26  84 W5          N/A
TRIBUNE KS     PTCLDY    32  27  80 NW7       29.46F
TRENTON NEB      N/A     32  32 100 E10         N/A
KIT CARSON CO    N/A     32  28  83 CALM        N/A
$$




USA.gov is the U.S. government's official web portal to all federal, state and local government web resources and services.